Regional Weather Roundup
Issued by NWS Nashville, TN

Current Version | Previous Version | Text Only | Print | Product List | Glossary Off
Versions: 1 2 3 4 5 6 7 8 9 10 11 12 13 14 15 16 17 18 19 20 21 22 23 24 25 26 27 28 29 30 31 32 33 34 35 36 37 38 39 40 41 42 43 44 45 46 47 48 49 50

000
ASUS44 KOHX 310815
RWROHX
MIDDLE TENNESSEE HOURLY WEATHER ROUNDUP
NATIONAL WEATHER SERVICE NASHVILLE TN
300 AM CDT FRI OCT 31 2014

NOTE: "FAIR" INDICATES FEW OR NO CLOUDS BELOW 12,000 FEET WITH
NO SIGNIFICANT WEATHER AND/OR OBSTRUCTIONS TO VISIBILITY.

* THESE REPORTS ARE NOT UNDER NWS QUALITY CONTROL AND MAY NOT
  REPORT WEATHER SUCH AS PRECIPITATION AND FOG.


TNZ005>011-023>034-057-059-062>066-078-080-310900
...NORTHERN MIDDLE TENNESSEE...

CITY           SKY/WX    TMP DP  RH WIND       PRES   REMARKS
CLARKSVILLE    LGT RAIN  50  46  86 W3        30.00S
CROSSVILLE     MOCLDY    42  38  85 CALM      30.00S
GALLATIN       CLOUDY    45  44  96 CALM      30.00F
DICKSON        CLOUDY    46  43  87 CALM      29.99F
LEBANON        CLOUDY    46  43  90 CALM      29.98F
LIVINGSTON     MOCLDY    42  39  89 CALM      30.00F
NASHVILLE      CLOUDY    50  45  83 CALM      29.98F
WEST NASHVILLE MOCLDY    48  48 100 W5        30.00F
PORTLAND       CLOUDY    45  43  93 CALM      29.98F
ROCKWOOD       MOCLDY    44  36  73 N3        29.98F
SMYRNA         CLOUDY    47  44  89 E6        29.99F
SPARTA         CLEAR     43  43 100 CALM      30.00S
$$
TNZ056-058-060-061-075>077-079-093>097-310900
...SOUTHERN MIDDLE TENNESSEE...

CITY           SKY/WX    TMP DP  RH WIND       PRES   REMARKS
COLUMBIA       MOCLDY   N/A N/A N/A SW3       29.98F
FAYETTEVILLE   CLEAR     43  39  87 MISG      29.99F
MCMINNVILLE    MOCLDY    43  43 100 CALM      29.99F
MURFREESBORO   CLOUDY    47  44  89 E3        29.99F
SHELBYVILLE    CLOUDY    45  45 100 E5        29.99F
TULLAHOMA      CLEAR     45  39  81 CALM      29.99F
WINCHESTER     CLOUDY    43  43 100 CALM      30.00S
$$


...KEY TO REMARKS...
VSB - VISIBILITY IN MILES
WCI - WIND CHILL INDEX
HX  - HEAT INDEX




USA.gov is the U.S. government's official web portal to all federal, state and local government web resources and services.